Time,TemperatureF,DewpointF,PressureIn,WindDirection,WindDirectionDegrees,WindSpeedMPH,WindSpeedGustMPH,Humidity,HourlyPrecipIn,Conditions,Clouds,dailyrainin,SoftwareType,DateUTC
2013-07-15 00:01:00,71.0,68.0,-100.00,NNW,335,1.0,1.0,89,0.00,,,0.06,,2013-07-15 04:01:00,
2013-07-15 00:11:00,71.0,68.0,-100.00,NNW,335,1.0,1.0,89,0.00,,,0.06,,2013-07-15 04:11:00,
2013-07-15 00:22:00,71.0,68.0,-100.00,NNW,335,1.0,1.0,89,0.00,,,0.06,,2013-07-15 04:22:00,
2013-07-15 00:42:00,70.0,68.0,-100.00,NW,313,1.0,2.0,92,0.00,,,0.06,,2013-07-15 04:42:00,
2013-07-15 00:54:00,70.0,68.0,-100.00,NW,313,1.0,2.0,92,0.00,,,0.06,,2013-07-15 04:54:00,
2013-07-15 01:02:00,70.0,68.0,-100.00,NW,313,1.0,2.0,92,0.00,,,0.06,,2013-07-15 05:02:00,
2013-07-15 01:32:00,72.0,69.0,-100.00,ESE,113,1.0,1.0,89,0.00,,,0.04,,2013-07-15 05:32:00,
2013-07-15 01:43:00,72.0,69.0,-100.00,ESE,113,1.0,1.0,89,0.00,,,0.04,,2013-07-15 05:43:00,
2013-07-15 01:53:00,71.0,68.0,-100.00,WNW,302,0.0,1.0,91,0.00,,,0.04,,2013-07-15 05:53:00,
2013-07-15 02:02:00,71.0,68.0,-100.00,WNW,302,0.0,1.0,91,0.00,,,0.04,,2013-07-15 06:02:00,
2013-07-15 02:12:00,70.0,68.0,-100.00,North,1,0.0,0.0,93,0.00,,,0.04,,2013-07-15 06:12:00,
2013-07-15 02:22:00,70.0,68.0,-100.00,North,1,0.0,0.0,93,0.00,,,0.04,,2013-07-15 06:22:00,
2013-07-15 02:32:00,71.0,68.0,-100.00,SW,217,0.0,2.0,93,0.00,,,0.04,,2013-07-15 06:32:00,
2013-07-15 02:42:00,71.0,68.0,-100.00,SW,217,0.0,2.0,93,0.00,,,0.04,,2013-07-15 06:42:00,
2013-07-15 02:53:00,70.0,68.0,-100.00,WNW,287,0.0,0.0,94,0.00,,,0.04,,2013-07-15 06:53:00,
2013-07-15 03:01:00,69.0,68.0,-100.00,North,10,0.0,0.0,95,0.00,,,0.01,,2013-07-15 07:01:00,
2013-07-15 03:11:00,69.0,68.0,-100.00,North,10,0.0,0.0,95,0.00,,,0.01,,2013-07-15 07:11:00,
2013-07-15 03:22:00,69.0,68.0,-100.00,North,10,0.0,0.0,95,0.00,,,0.01,,2013-07-15 07:22:00,
2013-07-15 03:33:00,69.0,68.0,-100.00,SW,236,1.0,2.0,95,0.00,,,0.01,,2013-07-15 07:33:00,
2013-07-15 03:44:00,69.0,68.0,-100.00,SW,236,1.0,2.0,95,0.00,,,0.01,,2013-07-15 07:44:00,
2013-07-15 04:32:00,69.0,68.0,-100.00,NNW,332,1.0,2.0,95,0.00,,,0.01,,2013-07-15 08:32:00,
2013-07-15 04:43:00,70.0,68.0,-100.00,SSE,157,2.0,4.0,95,0.00,,,0.01,,2013-07-15 08:43:00,
2013-07-15 04:53:00,70.0,68.0,-100.00,SSE,157,2.0,4.0,95,0.00,,,0.01,,2013-07-15 08:53:00,
2013-07-15 05:02:00,69.0,67.0,-100.00,North,360,1.0,2.0,94,0.00,,,0.01,,2013-07-15 09:02:00,
2013-07-15 05:12:00,69.0,67.0,-100.00,North,360,1.0,2.0,94,0.00,,,0.01,,2013-07-15 09:12:00,
2013-07-15 05:22:00,69.0,67.0,-100.00,North,360,1.0,2.0,94,0.00,,,0.01,,2013-07-15 09:22:00,
2013-07-15 05:32:00,69.0,67.0,-100.00,NNW,344,1.0,2.0,95,0.00,,,0.01,,2013-07-15 09:32:00,
2013-07-15 05:43:00,69.0,67.0,-100.00,WSW,251,0.0,1.0,95,0.00,,,0.01,,2013-07-15 09:43:00,
2013-07-15 05:52:00,69.0,67.0,-100.00,WSW,251,0.0,1.0,95,0.00,,,0.01,,2013-07-15 09:52:00,
2013-07-15 06:02:00,68.0,67.0,-100.00,NW,326,0.0,0.0,95,0.00,,,0.01,,2013-07-15 10:02:00,
2013-07-15 06:11:00,68.0,67.0,-100.00,NW,326,0.0,0.0,95,0.00,,,0.01,,2013-07-15 10:11:00,
2013-07-15 06:22:00,68.0,67.0,-100.00,NW,326,0.0,0.0,95,0.00,,,0.01,,2013-07-15 10:22:00,
2013-07-15 06:32:00,68.0,67.0,-100.00,South,189,0.0,0.0,96,0.00,,,0.00,,2013-07-15 10:32:00,
2013-07-15 06:43:00,68.0,67.0,-100.00,ESE,120,0.0,1.0,96,0.00,,,0.00,,2013-07-15 10:43:00,
2013-07-15 06:53:00,68.0,67.0,-100.00,ESE,120,0.0,1.0,96,0.00,,,0.00,,2013-07-15 10:53:00,
2013-07-15 07:02:00,68.0,67.0,-100.00,ESE,120,0.0,1.0,96,0.00,,,0.00,,2013-07-15 11:02:00,
2013-07-15 07:32:00,68.0,67.0,-100.00,North,359,2.0,3.0,96,0.00,,,0.00,,2013-07-15 11:32:00,
2013-07-15 07:42:00,68.0,67.0,-100.00,North,359,2.0,3.0,96,0.00,,,0.00,,2013-07-15 11:42:00,
2013-07-15 07:52:00,70.0,68.0,-100.00,NNW,343,2.0,3.0,95,0.00,,,0.00,,2013-07-15 11:52:00,
2013-07-15 08:01:00,72.0,69.0,-100.00,North,6,2.0,3.0,91,0.00,,,0.00,,2013-07-15 12:01:00,
2013-07-15 08:11:00,72.0,69.0,-100.00,North,6,2.0,3.0,91,0.00,,,0.00,,2013-07-15 12:11:00,
2013-07-15 08:22:00,72.0,69.0,-100.00,North,6,2.0,3.0,91,0.00,,,0.00,,2013-07-15 12:22:00,
2013-07-15 08:32:00,72.0,69.0,-100.00,NNW,336,2.0,3.0,89,0.00,,,0.00,,2013-07-15 12:32:00,
2013-07-15 08:42:00,72.0,69.0,-100.00,NNW,336,2.0,3.0,89,0.00,,,0.00,,2013-07-15 12:42:00,
2013-07-15 08:52:00,73.0,70.0,-100.00,North,7,3.0,4.0,89,0.00,,,0.00,,2013-07-15 12:52:00,
2013-07-15 09:02:00,73.0,69.0,-100.00,ENE,71,1.0,2.0,88,0.00,,,0.00,,2013-07-15 13:02:00,
2013-07-15 09:11:00,73.0,69.0,-100.00,ENE,71,1.0,2.0,88,0.00,,,0.00,,2013-07-15 13:11:00,
2013-07-15 09:22:00,73.0,69.0,-100.00,ENE,71,1.0,2.0,88,0.00,,,0.00,,2013-07-15 13:22:00,
2013-07-15 10:02:00,76.0,70.0,-100.00,North,8,2.0,3.0,81,0.00,,,0.00,,2013-07-15 14:02:00,
2013-07-15 10:11:00,77.0,70.0,-100.00,East,97,0.0,2.0,79,0.00,,,0.00,,2013-07-15 14:11:00,
2013-07-15 10:22:00,77.0,70.0,-100.00,East,97,0.0,2.0,79,0.00,,,0.00,,2013-07-15 14:22:00,
2013-07-15 10:33:00,78.0,69.0,-100.00,NE,45,4.0,5.0,75,0.00,,,0.00,,2013-07-15 14:33:00,
2013-07-15 10:42:00,78.0,69.0,-100.00,NE,45,4.0,5.0,75,0.00,,,0.00,,2013-07-15 14:42:00,
2013-07-15 10:58:00,78.0,69.0,-100.00,NE,56,5.0,6.0,75,0.00,,,0.00,,2013-07-15 14:58:00,
2013-07-15 11:03:00,78.0,69.0,-100.00,NE,56,5.0,6.0,75,0.00,,,0.00,,2013-07-15 15:03:00,
2013-07-15 11:29:00,78.0,69.0,-100.00,NNE,30,4.0,6.0,76,0.00,,,0.00,,2013-07-15 15:29:00,
2013-07-15 11:31:00,82.0,66.0,-100.00,NNE,17,2.0,4.0,59,0.00,,,0.00,,2013-07-15 15:31:00,
2013-07-15 11:40:00,80.0,68.0,-100.00,ENE,62,2.0,4.0,65,0.00,,,0.00,,2013-07-15 15:40:00,
2013-07-15 11:47:00,80.0,68.0,-100.00,ENE,62,2.0,4.0,65,0.00,,,0.00,,2013-07-15 15:47:00,
2013-07-15 12:08:00,81.0,68.0,-100.00,SE,136,3.0,4.0,63,0.00,,,0.00,,2013-07-15 16:08:00,
2013-07-15 12:24:00,82.0,66.0,-100.00,NNE,17,2.0,4.0,59,0.00,,,0.00,,2013-07-15 16:24:00,
2013-07-15 12:31:00,83.0,68.0,-100.00,South,171,2.0,4.0,60,0.00,,,0.00,,2013-07-15 16:31:00,
2013-07-15 12:53:00,84.0,68.0,-100.00,SSW,209,0.0,2.0,58,0.00,,,0.00,,2013-07-15 16:53:00,
2013-07-15 13:13:00,83.0,68.0,-100.00,South,171,2.0,4.0,60,0.00,,,0.00,,2013-07-15 17:13:00,
2013-07-15 13:23:00,83.0,68.0,-100.00,South,171,2.0,4.0,60,0.00,,,0.00,,2013-07-15 17:23:00,
2013-07-15 13:31:00,85.0,65.0,-100.00,South,176,1.0,3.0,51,0.00,,,0.00,,2013-07-15 17:31:00,
2013-07-15 14:08:00,85.0,65.0,-100.00,SSW,196,0.0,2.0,51,0.00,,,0.00,,2013-07-15 18:08:00,
2013-07-15 14:29:00,85.0,65.0,-100.00,South,176,1.0,3.0,51,0.00,,,0.00,,2013-07-15 18:29:00,
2013-07-15 14:59:00,86.0,64.0,-100.00,SSE,147,2.0,3.0,47,0.00,,,0.00,,2013-07-15 18:59:00,
2013-07-15 15:05:00,86.0,63.0,-100.00,ENE,76,1.0,3.0,46,0.00,,,0.00,,2013-07-15 19:05:00,
2013-07-15 15:12:00,86.0,63.0,-100.00,ENE,76,1.0,3.0,46,0.00,,,0.00,,2013-07-15 19:12:00,
2013-07-15 15:24:00,86.0,63.0,-100.00,ENE,76,1.0,3.0,46,0.00,,,0.00,,2013-07-15 19:24:00,
2013-07-15 15:38:00,86.0,64.0,-100.00,NNE,21,4.0,5.0,47,0.00,,,0.00,,2013-07-15 19:38:00,
2013-07-15 15:47:00,88.0,69.0,-100.00,SSE,160,3.0,4.0,54,0.00,,,0.00,,2013-07-15 19:47:00,
2013-07-15 16:07:00,88.0,69.0,-100.00,SSE,160,3.0,4.0,54,0.00,,,0.00,,2013-07-15 20:07:00,
2013-07-15 16:43:00,88.0,63.0,-100.00,South,181,3.0,6.0,44,0.00,,,0.00,,2013-07-15 20:43:00,
2013-07-15 16:55:00,88.0,58.0,-100.00,ESE,121,1.0,3.0,37,0.00,,,0.00,,2013-07-15 20:55:00,
2013-07-15 17:03:00,88.0,58.0,-100.00,ESE,121,1.0,3.0,37,0.00,,,0.00,,2013-07-15 21:03:00,
2013-07-15 17:23:00,88.0,60.0,-100.00,NNE,20,3.0,4.0,39,0.00,,,0.00,,2013-07-15 21:23:00,
2013-07-15 17:40:00,90.0,57.0,-100.00,NNW,347,3.0,4.0,33,0.00,,,0.00,,2013-07-15 21:40:00,
2013-07-15 17:48:00,90.0,57.0,-100.00,NNW,347,3.0,4.0,33,0.00,,,0.00,,2013-07-15 21:48:00,
2013-07-15 18:03:00,90.0,61.0,-100.00,NW,325,2.0,3.0,37,0.00,,,0.00,,2013-07-15 22:03:00,
2013-07-15 18:19:00,90.0,61.0,-100.00,NW,325,2.0,3.0,37,0.00,,,0.00,,2013-07-15 22:19:00,
2013-07-15 18:31:00,85.0,67.0,-100.00,South,176,6.0,8.0,55,0.00,,,0.00,,2013-07-15 22:31:00,
2013-07-15 18:34:00,90.0,64.0,-100.00,NNW,332,1.0,2.0,43,0.00,,,0.00,,2013-07-15 22:34:00,
2013-07-15 18:43:00,90.0,64.0,-100.00,NNW,332,1.0,2.0,43,0.00,,,0.00,,2013-07-15 22:43:00,
2013-07-15 19:30:00,85.0,67.0,-100.00,South,176,6.0,8.0,55,0.00,,,0.00,,2013-07-15 23:30:00,
2013-07-15 19:54:00,84.0,69.0,-100.00,South,178,6.0,7.0,62,0.00,,,0.00,,2013-07-15 23:54:00,
2013-07-15 20:03:00,83.0,68.0,-100.00,South,171,7.0,10.0,61,0.00,,,0.00,,2013-07-16 00:03:00,
2013-07-15 20:16:00,83.0,68.0,-100.00,South,171,7.0,10.0,61,0.00,,,0.00,,2013-07-16 00:16:00,
2013-07-15 20:31:00,79.0,68.0,-100.00,South,176,6.0,7.0,68,0.00,,,0.00,,2013-07-16 00:31:00,
2013-07-15 20:34:00,81.0,68.0,-100.00,South,178,6.0,7.0,64,0.00,,,0.00,,2013-07-16 00:34:00,
2013-07-15 20:53:00,80.0,69.0,-100.00,South,176,7.0,9.0,68,0.00,,,0.00,,2013-07-16 00:53:00,
2013-07-15 21:11:00,79.0,68.0,-100.00,South,176,6.0,7.0,68,0.00,,,0.00,,2013-07-16 01:11:00,
2013-07-15 21:17:00,79.0,68.0,-100.00,South,176,6.0,7.0,68,0.00,,,0.00,,2013-07-16 01:17:00,
2013-07-15 21:28:00,79.0,68.0,-100.00,South,176,6.0,7.0,68,0.00,,,0.00,,2013-07-16 01:28:00,
2013-07-15 21:51:00,74.0,68.0,-100.00,WNW,301,0.0,0.0,82,0.00,,,0.00,,2013-07-16 01:51:00,
2013-07-15 22:11:00,77.0,67.0,-100.00,SW,226,0.0,1.0,72,0.00,,,0.00,,2013-07-16 02:11:00,
2013-07-15 22:29:00,77.0,67.0,-100.00,SW,226,0.0,1.0,72,0.00,,,0.00,,2013-07-16 02:29:00,
2013-07-15 22:31:00,73.0,68.0,-100.00,SW,233,0.0,1.0,85,0.00,,,0.00,,2013-07-16 02:31:00,
2013-07-15 22:35:00,74.0,68.0,-100.00,WNW,301,0.0,0.0,82,0.00,,,0.00,,2013-07-16 02:35:00,
2013-07-15 22:50:00,74.0,68.0,-100.00,WNW,301,0.0,0.0,82,0.00,,,0.00,,2013-07-16 02:50:00,
2013-07-15 23:17:00,73.0,68.0,-100.00,SW,233,0.0,1.0,85,0.00,,,0.00,,2013-07-16 03:17:00,
2013-07-15 23:29:00,73.0,68.0,-100.00,SW,233,0.0,1.0,85,0.00,,,0.00,,2013-07-16 03:29:00,
2013-07-15 23:31:00,71.0,68.0,-100.00,WSW,253,0.0,1.0,90,0.00,,,0.00,,2013-07-16 03:31:00,